SQ8AQL-16 Weather Reports


time (UTC)temp
C
wind
direction
speed
KPH
gust
KPH
rain 1hr
cm
rain 24hr
cm
rain mn
cm
humidity
%
barometer
mb
20260506120643 26 76 0.0 0.0 0.00 0.00 0.00 31 1008.9
20260506115142 26 76 0.0 0.0 0.00 0.00 0.00 31 1008.7
20260506113641 26 76 0.0 0.0 0.00 0.00 0.00 31 1008.9
20260506112140 26 76 0.0 0.0 0.00 0.00 0.00 31 1008.7
20260506110639 26 192 0.0 1.6 0.00 0.00 0.00 30 1008.8
20260506105137 27 132 1.6 1.6 0.00 0.00 0.00 26 1008.7
20260506103636 27 222 0.0 0.0 0.00 0.00 0.00 27 1008.8
20260506102135 27 222 3.2 4.8 0.00 0.00 0.00 27 1008.7
20260506100634 28 192 4.8 4.8 0.00 0.00 0.00 27 1008.6
20260506095132 25 82 1.6 1.6 0.00 0.00 0.00 31 1008.7
20260506093632 23 104 0.0 0.0 0.00 0.00 0.00 36 1008.8
20260506092130 23 104 0.0 0.0 0.00 0.00 0.00 36 1009.0
20260506090629 23 104 3.2 3.2 0.00 0.00 0.00 36 1009.1
20260506085129 22 216 3.2 3.2 0.00 0.00 0.00 36 1009.0
20260506083628 22 131 3.2 3.2 0.00 0.00 0.00 38 1008.9
20260506082127 22 342 3.2 3.2 0.00 0.00 0.00 38 1008.8
20260506080626 21 198 3.2 3.2 0.00 0.00 0.00 38 1008.8
20260506072123 20 76 1.6 3.2 0.00 0.00 0.00 39 1008.7
20260506070622 20 175 0.0 0.0 0.00 0.00 0.00 40 1008.9
20260506062118 18 53 0.0 0.0 0.00 0.00 0.00 45 1008.5
20260506060617 18 53 0.0 0.0 0.00 0.00 0.00 45 1008.5
20260506050612 17 102 0.0 0.0 0.00 0.00 0.00 48 1008.5
20260506045111 17 102 0.0 0.0 0.00 0.00 0.00 48 1008.7
20260506043609 16 126 0.0 0.0 0.00 0.00 0.00 47 1008.8
20260506042108 16 246 1.6 1.6 0.00 0.00 0.00 44 1008.8
20260506040608 16 156 0.0 0.0 0.00 0.00 0.00 45 1008.8
20260506035107 15 117 0.0 0.0 0.00 0.00 0.00 45 1008.7
20260506033605 15 117 0.0 0.0 0.00 0.00 0.00 45 1008.7
20260506032104 15 354 0.0 0.0 0.00 0.00 0.00 44 1008.7
20260506030603 15 119 0.0 0.0 0.00 0.00 0.00 43 1008.8
20260506025101 15 119 0.0 0.0 0.00 0.00 0.00 43 1008.7
20260506023601 15 119 0.0 0.0 0.00 0.00 0.00 43 1008.9
20260506022059 15 119 0.0 0.0 0.00 0.00 0.00 43 1008.9
20260506020558 15 119 0.0 0.0 0.00 0.00 0.00 43 1009.0
20260506015057 15 119 0.0 0.0 0.00 0.00 0.00 43 1009.0
20260506013556 15 119 0.0 0.0 0.00 0.00 0.00 43 1009.1
20260506012055 16 129 0.0 0.0 0.00 0.00 0.00 41 1009.1
20260506010553 16 129 0.0 0.0 0.00 0.00 0.00 41 1009.1
20260506005053 16 129 0.0 0.0 0.00 0.00 0.00 41 1009.1
20260506003552 16 129 0.0 0.0 0.00 0.00 0.00 41 1009.1
20260506002050 16 129 0.0 0.0 0.00 0.00 0.00 41 1009.1
20260506000549 16 129 0.0 0.0 0.00 0.00 0.00 41 1009.2
20260505235048 16 129 0.0 0.0 0.00 0.00 0.00 41 1009.2
20260505233547 16 129 0.0 0.0 0.00 0.00 0.00 41 1009.2
20260505232046 16 129 0.0 0.0 0.00 0.00 0.00 41 1009.3
20260505230545 16 129 0.0 0.0 0.00 0.00 0.00 41 1009.4
20260505225044 17 144 0.0 0.0 0.00 0.00 0.00 40 1009.5
20260505223542 17 144 0.0 0.0 0.00 0.00 0.00 40 1009.5
20260505222041 17 144 0.0 0.0 0.00 0.00 0.00 40 1009.6
20260505220540 17 144 0.0 0.0 0.00 0.00 0.00 40 1009.6
20260505215039 17 144 0.0 0.0 0.00 0.00 0.00 40 1009.7
20260505213538 17 144 0.0 0.0 0.00 0.00 0.00 40 1009.9
20260505212037 17 144 0.0 0.0 0.00 0.00 0.00 40 1009.9
20260505210536 17 144 0.0 0.0 0.00 0.00 0.00 40 1009.9
20260505205035 17 156 0.0 0.0 0.00 0.00 0.00 40 1009.9
20260505203535 18 153 0.0 0.0 0.00 0.00 0.00 40 1009.9
20260505202034 18 118 0.0 0.0 0.00 0.00 0.00 39 1009.8
20260505200532 19 120 0.0 0.0 0.00 0.00 0.00 37 1009.8
20260505195032 19 120 0.0 0.0 0.00 0.00 0.00 37 1009.7
20260505193530 20 300 0.0 0.0 0.00 0.00 0.00 35 1009.7
20260505192030 20 312 0.0 0.0 0.00 0.00 0.00 35 1009.6
20260505190528 20 124 0.0 0.0 0.00 0.00 0.00 34 1009.5
20260505185028 22 102 0.0 0.0 0.00 0.00 0.00 31 1009.4
20260505183527 22 102 0.0 0.0 0.00 0.00 0.00 31 1009.4
20260505182026 22 102 1.6 1.6 0.00 0.00 0.00 31 1009.4
20260505180525 22 109 0.0 0.0 0.00 0.00 0.00 31 1009.2
20260505175025 23 144 0.0 0.0 0.00 0.00 0.00 28 1009.2
20260505173524 23 144 0.0 0.0 0.00 0.00 0.00 28 1009.2
20260505172023 23 144 3.2 3.2 0.00 0.00 0.00 28 1009.2
20260505170521 25 116 0.0 0.0 0.00 0.00 0.00 26 1009.2
20260505165020 25 138 1.6 3.2 0.00 0.00 0.00 25 1009.2
20260505163519 26 154 3.2 3.2 0.00 0.00 0.00 23 1009.3
20260505162018 27 264 0.0 0.0 0.00 0.00 0.00 18 1009.1
20260505160517 27 264 0.0 0.0 0.00 0.00 0.00 18 1009.2
20260505152014 27 264 1.6 3.2 0.00 0.00 0.00 18 1009.4
20260505150513 30 234 0.0 0.0 0.00 0.00 0.00 16 1009.4
20260505140509 31 138 0.0 0.0 0.00 0.00 0.00 16 1009.7
20260505125004 33 66 3.2 6.4 0.00 0.00 0.00 16 1010.6
20260505123503 31 90 1.6 3.2 0.00 0.00 0.00 17 1010.9
20260505122002 32 228 0.0 0.0 0.00 0.00 0.00 15 1011.1